Location: Barruelo
(41.2448°N, 3.8231°W)
Time: 19:48:59
(UTC+00:00)

NOAA 6 - Pass Details

Date: 11 December 2025
Orbit: 767 x 781 km, 98.6° (Epoch: 12 January)

Event Time Altitude Azimuth Distance (km) Brightness Sun altitude
Rises 19:02:06 0° 166° (SSE) 3,234 7.2 -24.7°
Reaches altitude 10° 19:04:23 10° 166° (SSE) 2,309 6.4 -25.1°
Maximum altitude 19:09:29 87° 254° (WSW) 777 3.9 -26.1°
Drops below altitude 10° 19:14:37 10° 346° (NNW) 2,317 6.5 -27.0°
Sets 19:16:56 0° 347° (NNW) 3,247 7.3 -27.4°
